Wind_Speed
16 16 15 14 14 14 13 13 13 12 11 10 9 8 8 9 10 11 12 14 15 17 18 19 21 22 24 25 26 27 28 29 29 30 30 31 30 30 30 29 27 24 22 20
17 17 17 15 14 14 14 14 13 12 12 11 10 10 9 10 10 11 13 14 16 17 18 19 20 21 23 24 25 26 27 28 28 29 29 29 30 29 30 29 27 25 22 21
17 16 16 15 14 14 14 14 13 13 13 12 12 11 11 11 11 12 13 14 16 17 18 19 20 21 22 23 25 26 26 27 27 27 28 28 29 29 29 29 28 25 23 21
16 15 15 14 13 14 14 14 14 14 13 13 13 13 12 12 12 13 14 15 16 17 18 19 20 21 22 23 24 25 25 26 26 26 27 27 27 28 28 28 27 26 24 22
16 16 15 14 13 14 14 14 14 14 14 14 14 14 13 13 14 14 15 16 17 18 19 19 20 21 22 23 23 24 25 25 25 25 26 26 26 26 26 26 26 26 24 23
16 16 15 16 12 14 15 15 14 15 15 15 15 15 14 14 15 15 16 17 18 18 19 20 20 21 21 22 23 24 24 24 24 24 24 24 25 25 25 24 24 24 24 23
16 17 18 16 13 15 16 15 14 15 15 15 15 16 15 16 16 16 17 18 18 19 20 20 21 21 22 22 23 23 24 24 24 24 24 24 24 24 24 23 23 23 23 22
18 19 19 16 16 17 16 15 16 16 16 16 16 16 17 17 17 18 18 19 20 20 21 21 21 22 22 23 23 24 24 24 24 24 23 23 23 23 23 22 22 22 22 21
20 20 18 17 17 18 18 18 18 18 17 17 18 18 18 18 19 19 20 20 21 21 21 21 22 22 23 23 24 24 24 24 24 24 24 23 23 23 22 22 21 21 21 21
20 20 19 19 19 19 20 19 19 19 19 19 19 20 20 20 21 21 21 22 22 22 22 22 23 23 24 24 24 25 25 25 25 25 24 24 23 23 22 22 21 21 21 20
21 21 20 20 20 21 21 21 21 21 21 21 22 22 22 22 23 23 23 23 23 23 24 24 24 24 25 26 26 26 26 26 26 26 25 25 24 24 23 23 22 21 20 20
23 23 23 22 22 22 23 23 23 23 23 23 23 24 24 24 24 24 25 25 25 25 25 26 26 26 27 27 28 28 28 28 27 27 27 26 26 25 25 24 23 23 21 20
25 25 25 25 24 25 25 25 25 25 25 25 25 25 26 26 26 26 26 26 27 27 27 27 28 28 29 29 29 29 29 29 28 29 29 28 28 27 26 25 25 24 23 22
28 28 28 27 27 27 27 27 28 28 27 27 27 27 27 27 27 27 28 28 28 28 29 29 30 30 31 31 31 30 30 30 30 30 30 30 29 29 28 27 26 25 25 24
30 31 31 30 30 30 30 30 30 29 29 29 29 29 29 29 29 29 30 30 30 30 30 30 31 31 31 31 31 32 31 31 31 31 31 30 30 29 29 28 27 27 26 26
33 34 33 32 32 32 32 32 31 31 31 31 31 31 31 31 31 31 32 32 32 31 32 32 32 32 32 33 33 33 33 33 33 32 32 32 31 31 30 30 29 29 28 28
36 36 35 35 35 34 34 34 33 33 33 33 33 33 33 33 33 34 34 34 34 34 34 34 34 35 35 35 35 35 35 35 34 34 34 34 33 33 32 32 32 31 31 31
37 38 38 37 37 37 36 36 35 35 35 35 35 35 35 35 36 35 35 36 36 36 36 37 37 37 37 37 37 37 37 37 36 36 36 36 35 35 35 35 35 35 34 35
39 39 39 39 39 39 39 38 38 38 38 38 38 37 37 37 38 38 37 38 38 39 39 39 40 40 40 40 40 39 39 38 38 38 37 37 37 37 37 38 38 38 38 38
41 41 41 41 41 41 40 40 40 40 39 39 39 39 39 40 40 40 40 41 41 42 42 42 42 42 42 42 41 40 40 39 39 39 39 39 39 40 41 41 42 42 42 42
42 42 42 42 42 42 42 42 42 42 42 42 42 42 42 42 42 43 43 43 43 43 43 43 44 44 44 43 42 41 41 41 41 41 42 42 43 43 44 44 44 44 45 45
43 44 43 43 43 43 44 44 44 44 44 44 44 44 45 45 45 45 45 45 45 44 45 45 45 44 43 42 42 42 43 43 44 44 45 45 45 46 46 47 47 47 47 48
43 44 44 44 44 44 44 45 45 45 45 46 46 46 46 46 46 46 46 46 46 46 46 46 45 44 43 43 43 44 45 45 46 46 47 47 48 49 49 49 50 50 51 51
44 45 45 46 46 46 46 46 46 47 47 47 47 47 47 47 47 47 47 47 47 47 46 45 44 44 44 44 45 45 46 47 47 48 48 49 50 51 52 52 53 53 54 54
44 45 46 46 47 47 47 47 47 47 48 48 48 48 48 48 47 47 47 46 46 46 45 44 44 44 45 45 46 46 47 47 48 49 50 51 52 53 54 54 55 55 55 55
45 45 46 46 46 47 47 47 47 47 48 47 47 47 47 47 47 46 46 45 45 45 44 44 44 45 46 46 47 47 48 49 49 51 52 53 54 54 55 55 55 56 56 56
45 45 46 46 46 46 46 46 46 46 46 47 47 46 46 46 45 45 45 45 45 44 44 45 45 46 46 47 47 48 49 50 51 52 53 54 55 55 55 55 56 56 56 56
Wind_Direction
224 241 245 244 241 238 237 239 242 247 255 264 273 284 296 307 318 328 335 340 344 347 350 353 356 359 1 3 5 5 6 8 10 11 12 13 14 15 16 17 18 19 21 21
226 235 241 244 241 238 237 240 242 247 254 262 270 279 290 301 312 321 329 335 339 342 345 349 352 355 358 360 1 3 4 6 8 10 11 12 13 14 15 16 17 19 20 22
232 238 240 242 239 238 238 241 243 247 254 262 269 276 285 295 304 313 322 329 333 338 341 344 347 350 353 355 357 359 1 3 5 7 8 10 12 13 14 16 18 20 21 22
236 239 243 240 238 239 240 242 244 249 255 263 269 275 282 290 298 307 316 322 328 332 336 339 342 345 348 351 353 356 358 0 2 3 5 6 9 11 12 14 16 18 19 19
237 240 245 244 238 239 243 245 246 250 257 263 269 273 280 288 295 303 311 318 323 327 331 334 337 340 343 346 349 351 354 356 358 360 1 3 4 7 9 11 13 15 16 17
239 243 247 244 239 241 245 248 247 252 258 263 268 274 279 285 292 300 307 313 318 322 326 329 332 334 337 341 343 346 348 350 353 355 357 359 0 2 5 7 9 11 13 14
242 245 247 246 243 244 247 250 251 255 259 264 269 275 280 286 292 298 303 309 313 317 320 324 327 329 331 334 337 340 343 345 347 349 351 353 355 357 360 2 4 6 8 9
244 245 247 246 244 246 251 254 255 258 262 266 270 275 280 286 291 296 300 305 309 312 315 318 321 324 327 329 332 334 337 339 341 343 345 347 349 351 353 356 357 359 1 3
246 248 249 248 247 249 252 255 258 261 264 267 271 275 280 285 289 293 297 300 304 307 311 314 317 319 322 325 327 329 331 333 335 337 339 340 342 344 346 348 349 351 353 355
248 249 248 248 249 251 254 257 260 262 264 267 271 276 280 284 288 291 294 298 301 304 307 310 313 315 318 320 321 323 325 327 329 330 332 333 334 336 338 340 341 342 344 346
247 248 248 249 251 253 255 258 261 263 266 269 272 276 280 283 287 290 293 296 299 302 305 307 310 312 314 315 317 317 319 320 322 323 325 327 327 328 329 331 333 334 335 337
247 248 250 250 253 255 257 260 262 265 268 270 273 276 279 282 285 288 291 294 296 299 302 304 307 309 311 312 313 313 314 315 316 317 319 320 321 321 321 322 323 324 325 326
250 252 253 253 255 257 260 262 265 267 269 271 274 277 279 282 285 287 289 292 294 297 299 302 304 307 308 309 309 310 310 310 311 312 313 314 314 315 315 314 314 315 315 315
253 253 254 255 257 259 261 263 265 267 269 272 274 277 279 281 284 286 288 291 293 295 297 300 302 304 306 307 308 308 308 307 307 308 309 309 309 309 310 310 309 308 308 308
253 254 255 256 258 260 262 263 265 267 270 272 274 276 279 281 283 286 288 290 292 294 296 299 301 303 304 305 306 306 306 306 306 307 307 306 305 306 306 306 306 305 304 303
252 254 256 257 259 260 261 263 265 267 270 272 274 276 278 280 283 285 288 290 291 293 295 297 300 301 302 302 303 303 304 304 304 304 304 303 303 302 302 302 302 301 301 300
253 254 256 258 259 260 262 264 266 268 270 272 274 276 278 280 283 285 287 289 290 292 294 296 298 300 300 300 300 301 301 301 301 301 301 301 300 299 298 298 298 297 297 296
253 255 256 257 259 261 262 264 266 268 270 272 274 276 278 280 282 285 287 288 290 292 293 294 296 298 298 298 298 299 298 298 298 298 298 298 297 297 296 296 296 295 294 293
253 254 255 257 258 260 262 264 266 268 270 272 274 276 278 280 282 284 286 288 290 291 293 293 294 296 297 297 297 297 297 297 297 297 297 297 297 296 296 296 295 294 293 291
253 254 255 256 257 259 261 263 265 267 269 271 273 275 278 280 282 284 286 288 289 291 292 292 293 295 295 296 296 295 295 295 296 296 296 296 296 296 295 295 294 294 293 291
254 254 255 256 257 259 260 262 264 266 268 271 273 275 277 280 282 284 286 287 289 290 291 292 293 294 294 294 294 294 294 295 295 296 296 296 296 296 296 296 295 294 292 291
254 254 255 256 257 258 260 262 264 266 268 270 273 275 277 279 281 283 285 287 288 290 291 292 293 293 293 293 293 293 294 295 295 296 296 297 297 297 297 296 295 294 293 292
253 254 255 255 257 258 260 262 263 265 268 270 272 275 277 279 281 283 284 286 288 290 291 292 292 292 292 292 293 294 294 295 296 297 297 297 297 298 297 297 296 295 294 292
253 254 254 255 256 258 260 261 263 265 267 270 272 274 276 278 280 282 284 287 289 290 291 291 291 291 291 292 293 294 295 296 297 297 298 298 299 299 298 298 297 296 295 293
253 253 254 255 256 257 259 261 263 265 267 269 271 274 276 278 280 282 284 286 288 289 290 290 290 291 292 293 294 295 296 297 298 298 299 299 300 299 299 299 298 297 296 295
252 253 254 255 257 258 259 261 263 265 267 269 271 273 276 278 280 282 283 285 287 288 288 289 290 291 292 294 295 296 297 298 299 299 300 300 301 301 301 300 300 299 298 297
253 254 254 255 256 258 259 261 263 265 267 269 271 273 275 277 279 281 283 285 286 287 287 289 291 292 293 295 296 297 298 299 300 300 301 302 302 302 302 302 302 301 301 300
Height
5856 5857 5858 5859 5861 5862 5863 5865 5865 5866 5866 5866 5866 5866 5865 5863 5862 5860 5858 5855 5852 5849 5846 5842 5838 5834 5829 5824 5819 5813 5808 5802 5796 5791 5785 5779 5773 5767 5761 5755 5749 5744 5740 5736
5853 5854 5855 5857 5858 5859 5861 5862 5863 5863 5864 5864 5864 5863 5863 5861 5860 5858 5856 5854 5851 5848 5845 5841 5837 5833 5829 5824 5819 5814 5809 5803 5798 5792 5787 5781 5775 5770 5764 5758 5753 5748 5743 5739
5850 5851 5852 5854 5856 5857 5858 5859 5860 5861 5862 5861 5861 5861 5860 5859 5858 5856 5854 5852 5849 5846 5843 5840 5836 5832 5828 5824 5819 5814 5809 5804 5799 5794 5789 5783 5778 5772 5767 5761 5756 5751 5746 5743
5846 5849 5850 5853 5853 5854 5855 5856 5857 5858 5858 5858 5858 5858 5857 5856 5855 5854 5852 5850 5847 5845 5841 5838 5835 5831 5827 5823 5819 5814 5809 5805 5800 5795 5790 5785 5780 5775 5769 5764 5759 5754 5750 5746
5844 5845 5846 5848 5850 5851 5852 5853 5854 5854 5855 5855 5855 5855 5854 5853 5852 5851 5849 5847 5845 5842 5839 5836 5833 5829 5826 5822 5818 5814 5809 5805 5800 5795 5791 5786 5781 5776 5771 5767 5762 5757 5753 5748
5841 5842 5844 5845 5847 5847 5849 5849 5851 5851 5851 5852 5851 5852 5852 5850 5849 5848 5846 5844 5842 5840 5837 5834 5831 5827 5824 5820 5817 5813 5808 5804 5800 5795 5791 5786 5782 5777 5773 5768 5764 5759 5755 5751
5837 5838 5839 5841 5843 5844 5846 5847 5847 5847 5848 5848 5848 5848 5848 5846 5845 5844 5843 5841 5839 5837 5834 5831 5828 5825 5822 5818 5815 5811 5807 5803 5799 5794 5790 5786 5782 5778 5773 5769 5765 5761 5757 5753
5833 5835 5837 5838 5839 5840 5841 5842 5843 5843 5844 5844 5844 5843 5843 5842 5841 5840 5839 5837 5835 5833 5831 5828 5825 5822 5819 5816 5812 5808 5805 5801 5797 5793 5789 5785 5782 5778 5773 5769 5766 5762 5758 5754
5830 5832 5833 5833 5835 5836 5837 5838 5838 5839 5839 5840 5839 5839 5839 5838 5837 5836 5835 5833 5831 5829 5827 5824 5821 5819 5816 5812 5809 5806 5802 5799 5795 5791 5788 5784 5780 5777 5773 5769 5766 5762 5758 5755
5825 5826 5828 5829 5830 5831 5832 5833 5834 5834 5835 5835 5835 5834 5834 5833 5832 5831 5830 5828 5826 5824 5822 5820 5817 5814 5812 5808 5805 5802 5799 5795 5792 5789 5785 5782 5778 5775 5771 5768 5765 5761 5758 5754
5820 5821 5823 5824 5825 5826 5827 5828 5828 5829 5829 5829 5829 5829 5828 5828 5827 5826 5824 5823 5821 5819 5817 5815 5812 5810 5807 5804 5801 5797 5794 5791 5788 5785 5781 5778 5775 5772 5768 5765 5762 5759 5756 5753
5815 5816 5817 5819 5820 5821 5821 5822 5823 5823 5823 5823 5823 5823 5822 5822 5821 5820 5818 5817 5815 5813 5811 5809 5807 5804 5801 5798 5795 5792 5789 5786 5783 5780 5777 5774 5771 5768 5765 5762 5759 5756 5753 5750
5808 5810 5811 5813 5814 5814 5815 5816 5816 5817 5817 5817 5817 5816 5816 5815 5814 5813 5812 5810 5809 5807 5805 5803 5800 5798 5795 5792 5789 5786 5783 5780 5777 5774 5771 5768 5766 5763 5760 5758 5755 5752 5749 5746
5801 5802 5804 5805 5806 5807 5808 5809 5809 5809 5810 5810 5810 5809 5809 5808 5807 5806 5805 5803 5802 5800 5798 5796 5794 5791 5788 5785 5782 5779 5776 5773 5771 5768 5765 5762 5759 5757 5754 5752 5750 5747 5744 5741
5793 5794 5796 5797 5798 5799 5800 5801 5801 5802 5802 5802 5802 5801 5801 5800 5799 5798 5797 5796 5794 5792 5790 5788 5786 5784 5781 5778 5775 5772 5769 5766 5763 5761 5758 5755 5752 5750 5747 5745 5743 5740 5738 5736
5784 5785 5787 5788 5789 5790 5791 5792 5793 5793 5794 5794 5793 5793 5792 5792 5791 5790 5789 5787 5786 5784 5782 5780 5778 5776 5773 5770 5767 5764 5761 5758 5755 5753 5750 5747 5745 5742 5740 5737 5735 5733 5731 5728
5774 5776 5777 5778 5780 5781 5782 5783 5783 5784 5784 5785 5784 5784 5783 5783 5782 5781 5780 5778 5777 5775 5774 5771 5769 5767 5764 5761 5758 5756 5753 5750 5747 5744 5741 5739 5736 5733 5731 5729 5726 5724 5722 5720
5763 5765 5767 5768 5770 5771 5772 5773 5774 5774 5774 5775 5774 5774 5774 5773 5772 5771 5770 5769 5767 5766 5764 5762 5759 5757 5754 5751 5749 5746 5743 5740 5737 5735 5732 5729 5726 5724 5721 5719 5717 5714 5712 5710
5752 5753 5755 5757 5758 5760 5761 5762 5763 5763 5764 5764 5764 5764 5763 5763 5762 5761 5760 5759 5757 5755 5753 5751 5749 5746 5743 5741 5738 5735 5732 5729 5726 5724 5721 5718 5716 5713 5711 5708 5705 5703 5700 5698
5739 5741 5743 5745 5747 5748 5749 5750 5751 5752 5753 5753 5753 5753 5752 5752 5751 5750 5749 5748 5746 5744 5742 5739 5737 5734 5732 5729 5726 5723 5720 5718 5715 5712 5709 5707 5704 5701 5698 5696 5693 5690 5687 5685
5727 5729 5731 5733 5734 5736 5737 5738 5740 5740 5741 5741 5741 5741 5741 5740 5740 5738 5737 5736 5734 5732 5730 5727 5725 5722 5719 5717 5714 5711 5708 5705 5703 5700 5697 5694 5691 5688 5685 5682 5679 5675 5673 5670
5714 5716 5718 5720 5722 5723 5725 5726 5727 5728 5729 5729 5729 5729 5728 5728 5727 5726 5725 5723 5721 5719 5717 5715 5712 5709 5707 5704 5701 5699 5696 5693 5690 5686 5683 5680 5677 5673 5670 5666 5663 5660 5657 5653
5700 5702 5704 5707 5708 5710 5712 5713 5714 5715 5716 5716 5716 5716 5716 5715 5714 5713 5712 5710 5708 5706 5703 5701 5698 5696 5693 5691 5688 5685 5682 5679 5676 5672 5669 5665 5661 5657 5654 5650 5647 5643 5639 5636
5687 5689 5691 5693 5695 5697 5698 5700 5701 5702 5702 5703 5703 5703 5702 5702 5701 5699 5698 5696 5694 5692 5690 5687 5685 5682 5680 5677 5675 5672 5668 5665 5661 5657 5653 5649 5645 5641 5637 5633 5629 5625 5621 5617
5673 5675 5677 5679 5681 5683 5685 5686 5687 5688 5689 5689 5689 5689 5688 5688 5687 5686 5684 5682 5681 5678 5676 5674 5671 5669 5666 5664 5660 5657 5654 5650 5646 5642 5638 5634 5629 5625 5620 5615 5611 5606 5601 5597
5659 5661 5663 5665 5667 5669 5670 5672 5673 5674 5674 5675 5675 5675 5675 5674 5673 5672 5670 5669 5667 5665 5663 5660 5658 5655 5652 5649 5646 5643 5639 5635 5631 5627 5622 5618 5613 5608 5603 5597 5592 5587 5581 5576
5644 5647 5649 5651 5653 5654 5656 5658 5659 5660 5660 5661 5661 5661 5661 5660 5659 5658 5657 5655 5653 5651 5649 5647 5644 5641 5638 5635 5632 5628 5624 5620 5615 5611 5606 5601 5596 5590 5585 5579 5574 5568 5562 5556